Theta_e
318 319 319 322 330 329 334 330 327 328 329 329 330 334 337 339 343 345 336 340 339 340 336 334 335 330 327 335 337 337 336 335 334 333 336 334 333 333 334 333 332 332 329 328 327 327 326 325 325
317 318 320 326 328 336 333 327 327 329 329 330 332 333 335 341 338 336 337 340 340 339 338 336 332 327 327 331 334 334 334 333 332 334 334 334 332 333 333 332 330 329 329 327 327 327 326 324 322
317 318 322 326 329 332 332 327 330 330 329 330 334 335 338 340 337 336 337 339 338 338 338 334 328 330 330 329 330 330 331 332 331 333 332 331 330 330 331 330 330 328 328 327 327 326 325 322 316
316 321 320 323 331 330 327 327 330 329 328 330 331 338 336 337 337 336 337 338 338 339 337 329 326 330 333 331 330 330 330 330 329 330 331 330 328 328 328 330 329 328 328 327 326 326 323 318 317
318 321 324 325 327 325 322 322 329 329 327 329 330 335 338 336 336 336 336 336 336 338 333 327 326 330 334 332 329 329 329 329 328 329 330 329 328 327 328 329 328 327 326 326 326 322 319 318 317
322 322 326 327 327 324 321 322 326 328 327 330 330 335 338 336 336 336 336 337 338 337 334 329 327 329 336 333 330 328 328 328 328 328 328 328 327 326 328 328 327 326 325 324 320 319 318 318 318
322 326 326 327 327 323 323 323 325 327 328 330 328 333 337 335 335 336 336 335 335 336 335 331 328 331 335 334 330 325 328 326 329 327 326 326 325 324 324 325 325 322 319 317 318 318 318 318 318
320 324 326 326 327 327 324 325 323 326 328 327 328 328 337 335 335 335 334 334 334 335 335 334 331 329 333 333 331 324 327 326 327 329 326 322 320 322 322 322 320 318 318 319 319 318 318 318 318
318 324 327 327 326 325 323 324 323 323 327 327 328 330 335 335 335 335 335 334 333 334 335 334 332 331 329 331 330 325 326 327 326 327 326 326 326 326 326 318 317 317 319 318 318 318 320 321 322
322 326 327 323 320 320 323 324 323 325 326 328 328 332 336 336 336 336 335 334 334 334 336 335 333 332 331 328 327 325 324 326 326 326 328 328 328 326 320 318 317 317 317 318 318 321 322 322 322
322 323 326 320 319 318 321 323 322 324 325 325 327 333 335 336 336 335 334 333 333 333 336 335 334 331 330 326 328 325 326 328 327 326 328 328 327 324 323 319 321 320 322 322 323 323 322 322 322
321 322 325 320 317 318 319 318 322 322 322 320 323 332 333 332 335 335 333 333 332 331 335 335 335 332 329 327 327 324 326 327 328 328 328 327 325 325 324 323 323 325 325 324 324 323 323 323 322
323 322 320 316 316 316 317 318 317 317 319 319 326 331 332 332 334 334 333 333 331 330 334 334 335 332 329 328 327 325 324 325 326 327 327 324 323 322 323 324 325 325 325 325 325 324 324 324 323
326 324 320 316 317 317 320 320 316 318 318 319 327 328 332 332 332 334 333 333 332 331 332 334 335 334 329 327 326 325 324 323 325 325 324 324 324 323 324 325 326 326 326 325 324 324 324 324 324
325 326 322 316 317 322 322 327 326 318 320 321 324 327 329 332 332 333 333 333 333 331 331 332 333 333 330 326 325 325 324 323 323 325 325 325 325 325 326 326 326 327 326 325 325 324 323 324 323
321 321 324 320 319 321 324 328 327 322 319 319 320 323 328 331 333 333 333 333 333 329 329 332 331 332 332 327 325 324 323 323 323 325 326 325 325 325 326 327 326 326 325 326 325 323 322 322 321
324 328 324 324 320 321 323 325 324 324 317 318 318 319 325 328 332 333 334 334 333 327 327 329 330 331 331 329 327 326 324 323 325 326 326 326 325 325 325 326 326 326 325 325 325 323 322 321 321
328 328 327 324 323 322 321 322 322 323 317 316 317 316 320 326 330 332 333 333 334 326 326 327 330 330 330 330 329 328 327 326 324 325 326 327 326 325 326 326 325 324 325 325 322 321 320 320 320
325 326 328 325 323 324 323 323 322 322 322 321 319 316 316 320 327 331 332 332 334 329 324 328 329 330 330 330 329 328 328 327 326 326 326 328 328 327 326 325 323 323 323 322 321 321 321 321 320
328 329 327 325 320 324 324 325 324 323 323 323 324 322 316 316 321 328 331 332 334 331 324 324 329 329 330 329 329 329 328 328 327 327 327 329 329 328 326 325 324 323 322 322 322 322 321 320 320
328 329 329 327 320 320 322 325 324 324 323 323 323 323 321 317 316 322 329 331 333 333 326 324 326 328 329 329 330 329 328 328 328 327 327 328 329 328 326 325 324 324 323 322 322 323 323 323 321
331 327 328 325 326 331 322 331 326 326 325 324 324 323 324 322 316 317 326 330 332 333 332 326 325 325 326 327 328 327 326 327 327 327 328 328 329 329 327 326 325 325 324 324 324 324 324 323 320
326 326 327 326 327 325 326 328 326 324 326 326 325 324 323 323 319 315 320 328 331 332 333 332 328 326 326 325 326 326 326 328 329 330 330 330 330 329 327 326 326 326 326 326 326 325 324 323 320
320 321 320 320 324 330 328 327 328 326 325 323 323 322 321 323 323 317 318 325 329 331 333 333 333 330 329 327 326 326 326 328 330 331 331 331 331 330 328 326 326 326 326 326 327 325 324 324 321
323 326 328 330 329 331 325 327 327 323 322 322 321 320 319 319 322 319 314 319 326 329 332 333 334 334 333 330 328 326 327 329 331 331 331 331 331 330 328 327 326 326 325 326 327 325 324 324 319
324 325 324 327 326 322 319 323 324 323 321 319 319 317 318 315 316 316 313 317 323 327 329 332 333 334 334 333 332 330 328 330 331 332 332 331 331 330 329 327 327 326 324 326 325 324 324 322 318
324 327 321 319 307 319 320 319 318 317 316 315 314 313 316 316 313 315 314 315 320 325 328 330 332 333 333 333 333 332 331 331 332 332 332 333 331 331 330 329 327 326 326 326 324 324 324 320 315
321 319 324 321 322 323 320 320 320 317 315 315 315 315 312 312 314 311 309 312 314 320 325 327 330 331 331 332 333 333 333 332 332 332 332 333 333 332 331 330 328 326 326 325 324 324 321 318 314
321 323 321 321 322 324 323 319 317 314 309 310 309 308 308 308 307 306 307 310 310 311 314 321 325 328 329 329 331 332 333 333 333 333 333 333 333 332 331 330 328 326 325 325 324 322 317 313 310
319 322 321 322 322 320 319 319 310 306 307 307 307 308 309 309 307 307 307 308 309 308 308 309 313 319 323 326 327 329 330 331 332 333 333 333 333 332 331 330 328 325 324 324 323 320 314 311 305
Wind_Speed
15 10 13 5 1 2 5 4 5 7 4 2 7 6 11 10 5 5 13 19 18 20 15 13 11 11 11 13 13 14 13 13 14 14 16 16 17 17 18 20 20 20 20 20 20 20 20 20 18
15 12 5 3 1 3 1 8 4 9 7 7 4 2 3 5 7 8 9 22 20 14 16 15 11 13 14 13 12 11 10 13 14 15 15 16 16 16 18 17 18 18 18 18 18 18 19 19 19
14 7 2 2 3 5 3 1 12 10 6 5 4 4 5 4 10 13 15 20 19 18 16 13 14 16 16 15 13 12 14 15 15 14 15 14 13 14 17 17 18 17 17 16 16 17 18 19 20
7 3 3 2 6 7 4 7 13 8 1 4 2 9 6 7 6 9 19 21 19 19 14 15 14 15 14 15 15 13 14 15 14 14 15 14 12 11 14 16 16 16 16 15 15 15 17 18 20
3 3 3 3 9 4 6 7 10 8 8 6 1 6 5 10 9 18 19 18 17 18 16 16 15 16 13 14 15 15 14 14 13 13 14 13 11 11 13 15 15 14 14 14 15 15 15 16 17
3 2 3 6 9 4 4 5 2 7 7 6 2 7 4 9 12 16 18 20 21 19 16 16 15 14 14 16 16 16 14 13 14 14 13 12 12 11 14 14 13 13 13 13 14 14 14 15 16
3 2 5 8 7 6 4 4 3 6 5 6 4 4 5 10 16 19 17 17 18 18 17 15 16 16 18 16 14 15 14 15 11 14 10 10 8 11 13 12 11 11 11 12 12 13 14 15 14
4 3 8 8 5 2 5 5 7 7 5 5 3 2 6 15 22 13 16 19 18 18 17 16 15 16 16 14 13 14 17 15 12 12 10 9 12 12 10 10 10 10 10 11 11 12 14 14 14
7 3 4 9 5 5 5 4 4 2 7 1 3 7 15 28 23 13 17 18 15 16 19 20 17 15 15 14 14 14 16 15 14 13 11 10 10 8 9 8 9 9 9 10 10 11 11 11 11
1 4 6 6 7 7 6 2 7 3 5 3 6 9 24 25 21 17 16 15 17 16 20 21 20 18 16 15 15 15 16 16 15 14 9 7 10 5 7 8 7 7 8 9 10 10 9 8 8
6 7 5 6 6 8 4 2 4 3 5 6 10 10 16 16 17 19 16 18 19 20 19 22 21 19 19 15 18 15 17 13 11 11 8 10 9 7 5 6 7 7 6 5 6 6 4 7 5
3 13 8 1 2 2 3 7 2 5 0 3 4 18 18 16 16 18 18 20 22 22 18 22 22 21 17 18 20 17 17 18 16 14 11 12 9 8 8 5 6 5 4 3 4 3 6 5 6
12 12 2 5 4 6 1 1 4 7 4 6 9 17 15 15 17 17 21 19 21 24 19 21 21 20 20 20 18 18 18 18 15 14 13 10 8 9 9 8 5 5 5 3 3 3 3 4 4
4 13 5 7 8 3 3 2 6 3 4 7 10 9 12 15 18 18 19 19 23 22 22 23 21 21 18 19 18 18 17 17 16 14 14 12 10 10 10 9 6 5 5 3 3 2 2 2 5
12 5 11 7 6 5 4 7 6 4 4 4 9 9 9 14 20 21 20 20 23 25 23 25 25 23 19 18 18 17 16 16 16 14 13 16 13 11 9 8 7 6 5 4 3 2 3 3 3
5 7 9 10 9 8 10 10 16 10 3 6 8 9 10 11 20 22 22 24 22 23 27 24 27 26 18 19 18 16 16 17 17 16 15 15 16 13 12 10 9 8 6 4 3 2 0 1 3
7 6 12 8 10 4 9 7 14 12 6 5 7 6 10 10 18 24 26 25 24 26 27 26 30 28 24 21 18 17 16 16 15 17 16 16 16 15 13 12 10 10 7 6 7 3 1 3 4
7 9 8 14 8 10 11 13 9 5 7 8 7 7 6 10 15 24 24 25 25 28 27 30 32 34 31 25 17 20 18 18 19 19 18 17 17 17 16 15 13 11 10 10 7 5 4 4 3
11 8 15 6 8 8 12 16 12 12 8 8 8 8 8 7 16 28 27 27 28 28 29 30 31 33 34 36 26 23 25 24 23 22 21 20 19 20 19 15 14 12 13 10 9 6 5 5 2
11 8 11 8 5 2 8 14 14 12 9 12 14 10 10 8 8 18 28 29 30 32 33 33 33 33 35 35 37 31 32 29 28 26 25 26 24 22 21 20 18 16 16 15 13 11 8 7 5
15 10 6 7 4 2 5 9 13 12 13 13 14 13 10 10 11 10 22 30 31 31 35 36 36 36 35 32 31 28 26 26 27 27 30 29 26 25 25 24 22 20 19 18 16 15 14 10 5
17 9 6 5 4 4 6 6 8 9 17 18 17 15 15 16 9 9 19 25 31 32 33 37 37 37 37 35 32 32 29 28 28 29 31 30 30 29 27 26 27 24 21 21 19 17 17 15 11
4 13 11 5 2 2 3 3 4 9 14 15 15 21 20 18 14 13 16 31 35 35 38 39 38 38 37 39 36 34 31 28 27 28 27 30 32 33 31 30 29 28 26 24 22 20 20 19 14
8 7 7 4 0 6 10 7 5 9 13 8 9 10 10 16 18 16 26 29 32 37 36 35 36 39 40 40 41 36 34 30 29 31 30 31 33 33 34 32 30 28 28 27 25 23 20 20 16
9 9 3 6 5 11 8 10 13 11 10 7 8 10 9 8 14 13 11 17 27 33 37 37 38 38 39 39 39 42 37 36 35 32 32 31 33 35 38 35 33 31 29 28 26 24 23 21 20
21 18 4 8 5 5 1 7 5 19 19 10 9 8 8 5 6 10 11 19 26 31 36 39 39 39 38 40 41 38 39 35 35 35 32 37 38 40 38 38 38 36 31 30 27 26 24 22 21
9 12 5 4 1 2 5 5 7 9 8 7 8 8 7 7 6 3 6 13 24 30 32 33 35 36 35 38 37 38 38 39 36 35 35 35 39 41 38 39 41 38 34 33 31 30 27 25 23
10 7 4 2 5 4 5 5 5 5 8 6 3 5 7 5 2 5 6 9 10 17 27 29 32 34 36 35 36 38 37 37 38 35 37 37 38 40 37 36 41 42 38 33 32 31 29 27 24
6 12 6 5 3 4 2 4 5 5 4 7 6 5 5 4 3 4 3 6 13 16 18 27 31 33 34 34 38 37 38 40 39 39 40 42 39 40 40 39 38 42 41 37 36 34 32 29 27
8 12 8 6 5 2 4 5 2 9 7 7 8 7 4 3 1 1 2 4 5 9 14 17 21 27 32 32 34 35 37 36 36 39 39 37 40 40 40 40 39 40 42 41 40 38 36 32 31
Wind_Direction
328 319 312 300 356 200 260 111 92 114 117 44 29 24 86 40 29 104 149 134 127 134 131 120 128 118 123 125 117 111 103 100 104 103 104 105 100 92 87 87 86 83 79 76 73 74 73 72 73
330 343 265 268 229 256 340 117 148 91 90 92 92 323 50 77 70 99 118 130 135 127 126 131 131 115 115 121 124 117 109 105 109 115 108 105 100 97 90 89 88 81 81 77 72 74 73 71 73
324 304 303 223 226 254 60 91 100 93 130 152 97 27 27 81 110 145 144 132 131 132 142 136 130 120 117 114 119 114 107 114 118 115 110 105 104 96 90 86 84 84 83 80 77 73 72 70 75
340 249 276 278 251 242 45 91 108 115 71 359 85 89 75 33 103 134 149 129 136 131 143 131 129 127 124 115 115 111 110 116 117 114 112 109 107 110 93 86 89 85 83 83 78 76 76 75 77
267 260 250 224 263 69 52 29 130 165 149 160 264 124 86 80 115 146 132 136 145 142 135 132 131 133 128 128 119 118 115 120 115 117 109 112 107 99 93 92 93 88 85 82 79 77 77 76 76
301 255 238 235 222 134 95 108 167 159 123 72 142 108 112 130 151 159 152 160 144 137 137 136 133 132 129 135 120 124 118 121 125 116 122 117 110 101 102 100 98 93 89 85 82 79 79 78 77
279 296 261 261 250 129 139 106 204 146 129 164 357 112 113 149 164 161 172 153 148 139 144 142 138 131 134 133 125 129 123 130 121 134 135 138 133 112 111 110 103 96 90 87 85 78 77 75 74
301 252 279 271 273 87 99 121 340 138 128 74 4 135 162 165 171 176 154 153 144 149 151 148 145 143 138 139 132 133 137 140 127 137 126 120 114 111 109 116 109 100 91 84 83 81 79 71 64
321 260 246 252 262 89 125 128 330 299 115 27 79 45 121 155 161 144 142 147 150 156 161 156 148 151 155 153 144 139 153 141 140 137 136 114 109 117 129 118 111 104 94 84 83 80 72 58 47
223 257 245 0 15 25 117 252 144 155 135 146 99 79 118 149 158 151 154 148 165 163 164 161 158 163 157 161 157 156 154 158 160 154 129 131 147 143 140 122 110 104 95 81 79 72 61 58 50
206 250 301 55 19 6 23 202 114 190 191 196 170 146 140 163 175 162 168 164 174 173 168 170 165 166 161 158 152 159 151 158 167 163 159 177 185 159 125 119 105 96 81 61 54 66 67 59 69
280 237 230 270 45 26 20 335 121 209 280 55 180 152 152 177 191 169 178 179 176 191 180 172 173 170 173 164 169 167 165 178 176 179 178 177 165 160 172 144 156 126 139 106 103 32 50 59 39
274 272 193 127 188 97 172 323 353 306 211 112 109 145 156 179 189 185 190 184 182 189 182 184 181 176 176 176 174 177 179 179 180 185 181 174 186 169 167 173 156 167 130 128 89 69 48 47 35
276 229 207 168 203 128 101 7 10 38 327 111 132 158 159 176 190 195 199 192 185 189 190 187 188 184 184 184 180 183 189 180 179 188 181 179 191 180 185 172 179 164 156 169 161 138 92 67 5
206 266 266 190 239 197 104 299 254 247 58 210 171 171 170 179 186 203 198 198 195 189 191 191 193 191 189 189 189 186 192 181 184 185 194 182 186 185 188 178 185 187 200 188 120 56 343 4 4
196 224 240 192 206 226 137 244 251 258 157 243 206 186 172 179 185 201 201 204 200 187 195 188 198 198 193 190 193 190 192 191 188 192 200 199 187 195 184 192 187 205 194 169 192 196 353 33 351
194 209 224 223 187 140 188 235 233 232 166 249 279 218 175 175 181 205 199 204 202 196 197 196 194 201 201 190 193 192 196 197 198 201 206 207 199 194 192 192 191 216 190 197 205 179 282 358 345
182 215 219 217 215 201 205 232 250 242 171 202 236 277 230 176 182 199 198 203 211 197 194 201 200 199 201 197 187 196 201 209 202 206 206 213 209 203 197 200 211 215 205 211 208 219 231 293 309
228 212 218 207 226 186 224 238 227 238 239 234 232 223 252 225 181 189 200 203 212 197 195 197 196 202 202 203 199 201 203 206 205 209 207 205 217 210 205 213 210 207 207 214 220 237 264 271 278
250 229 217 234 55 236 246 244 244 247 244 248 255 243 213 217 200 180 189 198 207 199 197 201 196 202 203 204 204 203 205 208 211 207 209 209 210 218 211 213 210 207 202 211 221 229 243 245 252
230 214 217 233 122 316 1 275 262 254 250 237 238 236 232 208 201 184 182 192 205 202 198 199 201 203 202 203 202 204 207 210 211 211 212 212 216 216 217 216 214 218 218 225 230 233 229 221 207
215 182 216 116 135 223 168 279 238 241 239 239 239 239 239 222 207 193 186 193 201 203 206 201 204 205 205 205 203 202 203 205 209 208 213 214 213 213 221 218 221 225 231 229 233 235 233 223 217
255 195 206 167 177 56 210 265 259 228 246 242 229 228 228 226 212 205 196 195 199 201 207 205 205 206 207 207 206 207 209 210 213 213 212 214 218 219 224 222 222 229 232 234 233 230 228 227 227
136 87 60 63 330 241 211 202 223 235 239 233 245 231 214 217 221 205 210 201 195 201 204 207 207 209 209 207 209 211 210 209 209 209 210 211 216 223 226 226 225 228 232 233 233 232 232 230 223
147 152 145 201 217 247 170 204 241 273 269 251 290 288 268 219 214 205 202 196 194 195 200 205 209 212 210 209 210 213 213 211 211 209 210 208 210 220 221 223 223 224 228 230 230 229 229 226 218
182 176 158 198 204 210 273 232 243 218 246 260 252 265 259 288 259 198 199 202 204 201 201 203 207 214 211 212 214 214 216 215 214 214 211 209 211 218 225 224 224 226 221 221 224 223 223 218 219
175 203 195 100 122 61 198 255 301 230 250 244 255 250 258 262 245 258 233 214 210 208 208 208 212 217 215 216 216 215 217 216 219 217 218 218 217 221 228 226 226 227 227 217 216 215 214 215 216
184 140 177 258 159 224 240 226 227 195 227 240 221 223 229 238 259 208 209 227 232 218 217 220 221 222 223 221 220 219 218 220 221 222 221 220 222 221 226 229 227 225 223 219 216 214 208 208 211
178 184 210 174 201 186 150 246 210 147 136 119 89 66 51 50 26 13 24 245 235 239 227 224 225 225 227 225 225 224 223 222 222 221 225 224 224 221 220 226 228 224 218 214 213 211 209 203 203
203 182 197 188 209 194 125 272 61 137 136 136 142 142 137 92 32 322 319 303 288 244 244 243 234 232 230 230 231 228 231 228 225 224 224 226 228 229 224 224 225 223 219 214 210 207 206 204 201